Tracking 19847 objects as of 16-Sep-2019
HD Live streaming from Space Station
objects crossing your sky now

NOAA 16 DEB

Track NOAA 16 DEB now!
10-day predictions


NORAD ID: 41507
Int'l Code: 2000-055MF
Perigee: 819.5 km
Apogee: 852.3 km
Inclination: 98.9 °
Period: 101.5 minutes
Semi major axis: 7206 km
RCS: Unknown
Launch date: September 21, 2000
Source: United States (US)
Launch site: AIR FORCE WESTERN TEST RANGE (AFWTR)

Note: This is SATELLITE DEBRIS
aabbcc
Your satellite tracking list
Your tracking list is empty




NASA's NSSDC Master Catalog

Two Line Element Set (TLE):
1 41507U 00055MF  19258.09721394  .00000815  00000-0  41087-3 0  9994
2 41507  98.8846 347.6230 0022747 103.3739 256.9974 14.18982366180408
Source of the keplerian elements: AFSPC